Year,Month,Day,Hour,Minute,Value (Times are PST for temperature in C)
2019,03,19,00,00,13.20
2019,03,19,00,01,13.20
2019,03,19,00,02,13.20
2019,03,19,00,03,13.20
2019,03,19,00,04,13.20
2019,03,19,00,05,13.20
2019,03,19,00,06,13.20
2019,03,19,00,07,13.20
2019,03,19,00,08,13.20
2019,03,19,00,09,13.20
2019,03,19,00,10,13.20
2019,03,19,00,11,13.20
2019,03,19,00,12,13.20
2019,03,19,00,13,13.20
2019,03,19,00,14,13.10
2019,03,19,00,15,13.10
2019,03,19,00,16,13.10
2019,03,19,00,17,13.10
2019,03,19,00,18,13.20
2019,03,19,00,19,13.20
2019,03,19,00,20,13.20
2019,03,19,00,21,13.30
2019,03,19,00,22,13.30
2019,03,19,00,23,13.30
2019,03,19,00,24,13.30
2019,03,19,00,25,13.30
2019,03,19,00,26,13.20
2019,03,19,00,27,13.20
2019,03,19,00,28,13.20
2019,03,19,00,29,13.20
2019,03,19,00,30,13.10
2019,03,19,00,31,13.10
2019,03,19,00,32,13.10
2019,03,19,00,33,13.10
2019,03,19,00,34,13.10
2019,03,19,00,35,13.00
2019,03,19,00,36,12.90
2019,03,19,00,37,12.90
2019,03,19,00,38,12.90
2019,03,19,00,39,12.80
2019,03,19,00,40,12.80
2019,03,19,00,41,12.70
2019,03,19,00,42,12.70
2019,03,19,00,43,12.60
2019,03,19,00,44,12.60
2019,03,19,00,45,12.50
2019,03,19,00,46,12.40
2019,03,19,00,47,12.30
2019,03,19,00,48,12.30
2019,03,19,00,49,12.20
2019,03,19,00,50,12.10
2019,03,19,00,51,12.10
2019,03,19,00,52,12.00
2019,03,19,00,53,12.00
2019,03,19,00,54,11.90
2019,03,19,00,55,11.90
2019,03,19,00,56,11.90
2019,03,19,00,57,11.90
2019,03,19,00,58,11.90
2019,03,19,00,59,11.90
2019,03,19,01,00,11.90
2019,03,19,01,01,11.80
2019,03,19,01,02,11.80
2019,03,19,01,03,11.80
2019,03,19,01,04,11.80
2019,03,19,01,05,11.80
2019,03,19,01,06,11.80
2019,03,19,01,07,11.80
2019,03,19,01,08,11.80
2019,03,19,01,09,11.80
2019,03,19,01,10,11.80
2019,03,19,01,11,11.80
2019,03,19,01,12,11.80
2019,03,19,01,13,11.80
2019,03,19,01,14,11.80
2019,03,19,01,15,11.80
2019,03,19,01,16,11.80
2019,03,19,01,17,11.80
2019,03,19,01,18,11.80
2019,03,19,01,19,11.80
2019,03,19,01,20,11.80
2019,03,19,01,21,11.80
2019,03,19,01,22,11.80
2019,03,19,01,23,11.80
2019,03,19,01,24,11.80
2019,03,19,01,25,11.80
2019,03,19,01,26,11.80
2019,03,19,01,27,11.70
2019,03,19,01,28,11.70
2019,03,19,01,29,11.70
2019,03,19,01,30,11.70
2019,03,19,01,31,11.70
2019,03,19,01,32,11.70
2019,03,19,01,33,11.70
2019,03,19,01,34,11.70
2019,03,19,01,35,11.70
2019,03,19,01,36,11.70
2019,03,19,01,37,11.70
2019,03,19,01,38,11.70
2019,03,19,01,39,11.70
2019,03,19,01,40,11.80
2019,03,19,01,41,11.80
2019,03,19,01,42,11.80
2019,03,19,01,43,11.80
2019,03,19,01,44,11.80
2019,03,19,01,45,11.80
2019,03,19,01,46,11.80
2019,03,19,01,47,11.80
2019,03,19,01,48,11.80
2019,03,19,01,49,11.80
2019,03,19,01,50,11.80
2019,03,19,01,51,11.80
2019,03,19,01,52,11.80
2019,03,19,01,53,11.80
2019,03,19,01,54,11.70
2019,03,19,01,55,11.70
2019,03,19,01,56,11.70
2019,03,19,01,57,11.70
2019,03,19,01,58,11.70
2019,03,19,01,59,11.70
2019,03,19,02,00,11.80
2019,03,19,02,01,11.90
2019,03,19,02,02,11.90
2019,03,19,02,03,11.90
2019,03,19,02,04,12.00
2019,03,19,02,05,12.10
2019,03,19,02,06,12.20
2019,03,19,02,07,12.20
2019,03,19,02,08,12.20
2019,03,19,02,09,12.20
2019,03,19,02,10,12.20
2019,03,19,02,11,12.20
2019,03,19,02,12,12.10
2019,03,19,02,13,12.10
2019,03,19,02,14,12.20
2019,03,19,02,15,12.20
2019,03,19,02,16,12.20
2019,03,19,02,17,12.20
2019,03,19,02,18,12.20
2019,03,19,02,19,12.20
2019,03,19,02,20,12.20
2019,03,19,02,21,12.20
2019,03,19,02,22,12.20
2019,03,19,02,23,12.20
2019,03,19,02,24,12.30
2019,03,19,02,25,12.30
2019,03,19,02,26,12.40
2019,03,19,02,27,12.40
2019,03,19,02,28,12.40
2019,03,19,02,29,12.50
2019,03,19,02,30,12.50
2019,03,19,02,31,12.60
2019,03,19,02,32,12.60
2019,03,19,02,33,12.60
2019,03,19,02,34,12.60
2019,03,19,02,35,12.60
2019,03,19,02,36,12.60
2019,03,19,02,37,12.60
2019,03,19,02,38,12.60
2019,03,19,02,39,12.60
2019,03,19,02,40,12.50
2019,03,19,02,41,12.50
2019,03,19,02,42,12.40
2019,03,19,02,43,12.40
2019,03,19,02,44,12.40
2019,03,19,02,45,12.40
2019,03,19,02,46,12.40
2019,03,19,02,47,12.40
2019,03,19,02,48,12.40
2019,03,19,02,49,12.40
2019,03,19,02,50,12.40
2019,03,19,02,51,12.40
2019,03,19,02,52,12.40
2019,03,19,02,53,12.40
2019,03,19,02,54,12.30
2019,03,19,02,55,12.30
2019,03,19,02,56,12.30
2019,03,19,02,57,12.20
2019,03,19,02,58,12.10
2019,03,19,02,59,12.00
2019,03,19,03,00,11.90
2019,03,19,03,01,11.80
2019,03,19,03,02,11.70
2019,03,19,03,03,11.60
2019,03,19,03,04,11.60
2019,03,19,03,05,11.50
2019,03,19,03,06,11.40
2019,03,19,03,07,11.30
2019,03,19,03,08,11.20
2019,03,19,03,09,11.20
2019,03,19,03,10,11.10
2019,03,19,03,11,11.10
2019,03,19,03,12,11.10
2019,03,19,03,13,11.10
2019,03,19,03,14,11.10
2019,03,19,03,15,11.10
2019,03,19,03,16,11.10
2019,03,19,03,17,11.10
2019,03,19,03,18,11.10
2019,03,19,03,19,11.10
2019,03,19,03,20,11.10
2019,03,19,03,21,11.10
2019,03,19,03,22,11.10
2019,03,19,03,23,11.00
2019,03,19,03,24,11.00
2019,03,19,03,25,11.00
2019,03,19,03,26,10.90
2019,03,19,03,27,10.90
2019,03,19,03,28,10.90
2019,03,19,03,29,10.90
2019,03,19,03,30,10.90
2019,03,19,03,31,10.90
2019,03,19,03,32,10.90
2019,03,19,03,33,10.90
2019,03,19,03,34,11.00
2019,03,19,03,35,11.00
2019,03,19,03,36,11.00
2019,03,19,03,37,11.00
2019,03,19,03,38,11.00
2019,03,19,03,39,11.00
2019,03,19,03,40,10.90
2019,03,19,03,41,10.90
2019,03,19,03,42,10.90
2019,03,19,03,43,10.90
2019,03,19,03,44,10.90
2019,03,19,03,45,10.90
2019,03,19,03,46,10.90
2019,03,19,03,47,10.90
2019,03,19,03,48,10.90
2019,03,19,03,49,10.90
2019,03,19,03,50,10.90
2019,03,19,03,51,10.90
2019,03,19,03,52,10.90
2019,03,19,03,53,10.80
2019,03,19,03,54,10.80
2019,03,19,03,55,10.70
2019,03,19,03,56,10.70
2019,03,19,03,57,10.70
2019,03,19,03,58,10.70
2019,03,19,03,59,10.70
2019,03,19,04,00,10.70
2019,03,19,04,01,10.80
2019,03,19,04,02,10.80
2019,03,19,04,03,10.90
2019,03,19,04,04,10.90
2019,03,19,04,05,10.90
2019,03,19,04,06,10.90
2019,03,19,04,07,10.90
2019,03,19,04,08,10.90
2019,03,19,04,09,10.80
2019,03,19,04,10,10.80
2019,03,19,04,11,10.80
2019,03,19,04,12,10.80
2019,03,19,04,13,10.80
2019,03,19,04,14,10.80
2019,03,19,04,15,10.80
2019,03,19,04,16,10.80
2019,03,19,04,17,10.80
2019,03,19,04,18,10.80
2019,03,19,04,19,10.80
2019,03,19,04,20,10.80
2019,03,19,04,21,10.80
2019,03,19,04,22,10.80
2019,03,19,04,23,10.80
2019,03,19,04,24,10.80
2019,03,19,04,25,10.80
2019,03,19,04,26,10.80
2019,03,19,04,27,10.70
2019,03,19,04,28,10.60
2019,03,19,04,29,10.60
2019,03,19,04,30,10.50
2019,03,19,04,31,10.50
2019,03,19,04,32,10.40
2019,03,19,04,33,10.40
2019,03,19,04,34,10.30
2019,03,19,04,35,10.30
2019,03,19,04,36,10.30
2019,03,19,04,37,10.30
2019,03,19,04,38,10.30
2019,03,19,04,39,10.30
2019,03,19,04,40,10.30
2019,03,19,04,41,10.20
2019,03,19,04,42,10.10
2019,03,19,04,43,10.10
2019,03,19,04,44,10.10
2019,03,19,04,45,10.10
2019,03,19,04,46,10.00
2019,03,19,04,47,10.00
2019,03,19,04,48,9.90
2019,03,19,04,49,9.90
2019,03,19,04,50,9.90
2019,03,19,04,51,9.80
2019,03,19,04,52,9.80
2019,03,19,04,53,9.80
2019,03,19,04,54,9.80
2019,03,19,04,55,9.80
2019,03,19,04,56,9.80
2019,03,19,04,57,9.80
2019,03,19,04,58,9.80
2019,03,19,04,59,9.80
2019,03,19,05,00,9.80
2019,03,19,05,01,9.90
2019,03,19,05,02,9.90
2019,03,19,05,03,9.90
2019,03,19,05,04,9.90
2019,03,19,05,05,9.90
2019,03,19,05,06,9.90
2019,03,19,05,07,10.00
2019,03,19,05,08,10.00
2019,03,19,05,09,10.00
2019,03,19,05,10,10.00
2019,03,19,05,11,10.10
2019,03,19,05,12,10.10
2019,03,19,05,13,10.10
2019,03,19,05,14,10.10
2019,03,19,05,15,10.10
2019,03,19,05,16,10.10
2019,03,19,05,17,10.10
2019,03,19,05,18,10.10
2019,03,19,05,19,10.20
2019,03,19,05,20,10.20
2019,03,19,05,21,10.30
2019,03,19,05,22,10.30
2019,03,19,05,23,10.30
2019,03,19,05,24,10.30
2019,03,19,05,25,10.30
2019,03,19,05,26,10.30
2019,03,19,05,27,10.30
2019,03,19,05,28,10.40
2019,03,19,05,29,10.40
2019,03,19,05,30,10.40
2019,03,19,05,31,10.50
2019,03,19,05,32,10.50
2019,03,19,05,33,10.50
2019,03,19,05,34,10.50
2019,03,19,05,35,10.50
2019,03,19,05,36,10.50
2019,03,19,05,37,10.60
2019,03,19,05,38,10.60
2019,03,19,05,39,10.60
2019,03,19,05,40,10.60
2019,03,19,05,41,10.60
2019,03,19,05,42,10.60
2019,03,19,05,43,10.60
2019,03,19,05,44,10.60
2019,03,19,05,45,10.60
2019,03,19,05,46,10.60
2019,03,19,05,47,10.60
2019,03,19,05,48,10.60
2019,03,19,05,49,10.50
2019,03,19,05,50,10.50
2019,03,19,05,51,10.50
2019,03,19,05,52,10.50
2019,03,19,05,53,10.50
2019,03,19,05,54,10.50
2019,03,19,05,55,10.40
2019,03,19,05,56,10.40
2019,03,19,05,57,10.40
2019,03,19,05,58,10.40
2019,03,19,05,59,10.40
2019,03,19,06,00,10.40
2019,03,19,06,01,10.40
2019,03,19,06,02,10.40
2019,03,19,06,03,10.30
2019,03,19,06,04,10.30
2019,03,19,06,05,10.20
2019,03,19,06,06,10.20
2019,03,19,06,07,10.10
2019,03,19,06,08,10.10
2019,03,19,06,09,10.00
2019,03,19,06,10,10.00
2019,03,19,06,11,10.00
2019,03,19,06,12,9.90
2019,03,19,06,13,9.90
2019,03,19,06,14,9.90
2019,03,19,06,15,9.80
2019,03,19,06,16,9.80
2019,03,19,06,17,9.80
2019,03,19,06,18,9.90
2019,03,19,06,19,9.90
2019,03,19,06,20,9.90
2019,03,19,06,21,9.90
2019,03,19,06,22,9.80
2019,03,19,06,23,9.80
2019,03,19,06,24,9.80
2019,03,19,06,25,9.80
2019,03,19,06,26,9.80
2019,03,19,06,27,9.70
2019,03,19,06,28,9.70
2019,03,19,06,29,9.70
2019,03,19,06,30,9.70
2019,03,19,06,31,9.60
2019,03,19,06,32,9.60
2019,03,19,06,33,9.60
2019,03,19,06,34,9.60
2019,03,19,06,35,9.60
2019,03,19,06,36,9.60
2019,03,19,06,37,9.60
2019,03,19,06,38,9.60
2019,03,19,06,39,9.60
2019,03,19,06,40,9.60
2019,03,19,06,41,9.60
2019,03,19,06,42,9.60
2019,03,19,06,43,9.60
2019,03,19,06,44,9.60
2019,03,19,06,45,9.60
2019,03,19,06,46,9.60
2019,03,19,06,47,9.60
2019,03,19,06,48,9.60
2019,03,19,06,49,9.60
2019,03,19,06,50,9.60
2019,03,19,06,51,9.60
2019,03,19,06,52,9.50
2019,03,19,06,53,9.50
2019,03,19,06,54,9.50
2019,03,19,06,55,9.40
2019,03,19,06,56,9.40
2019,03,19,06,57,9.40
2019,03,19,06,58,9.40
2019,03,19,06,59,9.30
2019,03,19,07,00,9.30
2019,03,19,07,01,9.30
2019,03,19,07,02,9.30
2019,03,19,07,03,9.20
2019,03,19,07,04,9.20
2019,03,19,07,05,9.20
2019,03,19,07,06,9.20
2019,03,19,07,07,9.20
2019,03,19,07,08,9.10
2019,03,19,07,09,9.10
2019,03,19,07,10,9.10
2019,03,19,07,11,9.10
2019,03,19,07,12,9.10
2019,03,19,07,13,9.10
2019,03,19,07,14,9.10
2019,03,19,07,15,9.10
2019,03,19,07,16,9.10
2019,03,19,07,17,9.10
2019,03,19,07,18,9.10
2019,03,19,07,19,9.00
2019,03,19,07,20,9.00
2019,03,19,07,21,9.00
2019,03,19,07,22,8.90
2019,03,19,07,23,8.90
2019,03,19,07,24,8.90
2019,03,19,07,25,8.90
2019,03,19,07,26,8.90
2019,03,19,07,27,8.80
2019,03,19,07,28,8.80
2019,03,19,07,29,8.80
2019,03,19,07,30,8.80
2019,03,19,07,31,8.80
2019,03,19,07,32,8.80
2019,03,19,07,33,8.80
2019,03,19,07,34,8.80
2019,03,19,07,35,8.80
2019,03,19,07,36,8.80
2019,03,19,07,37,8.80
2019,03,19,07,38,8.80
2019,03,19,07,39,8.80
2019,03,19,07,40,8.80
2019,03,19,07,41,8.80
2019,03,19,07,42,8.80
2019,03,19,07,43,8.80
2019,03,19,07,44,8.70
2019,03,19,07,45,8.70
2019,03,19,07,46,8.70
2019,03,19,07,47,8.70
2019,03,19,07,48,8.80
2019,03,19,07,49,8.80
2019,03,19,07,50,8.80
2019,03,19,07,51,8.80
2019,03,19,07,52,8.80
2019,03,19,07,53,8.80
2019,03,19,07,54,8.90
2019,03,19,07,55,8.90
2019,03,19,07,56,8.90
2019,03,19,07,57,8.90
2019,03,19,07,58,9.00
2019,03,19,07,59,9.00
2019,03,19,08,00,9.10
2019,03,19,08,01,9.10
2019,03,19,08,02,9.10
2019,03,19,08,03,9.20
2019,03,19,08,04,9.20
2019,03,19,08,05,9.20
2019,03,19,08,06,9.30
2019,03,19,08,07,9.30
2019,03,19,08,08,9.40
2019,03,19,08,09,9.50
2019,03,19,08,10,9.50
2019,03,19,08,11,9.50
2019,03,19,08,12,9.60
2019,03,19,08,13,9.60
2019,03,19,08,14,9.70
2019,03,19,08,15,9.70
2019,03,19,08,16,9.70
2019,03,19,08,17,9.80
2019,03,19,08,18,9.90
2019,03,19,08,19,9.90
2019,03,19,08,20,10.00
2019,03,19,08,21,10.00
2019,03,19,08,22,10.00
2019,03,19,08,23,10.10
2019,03,19,08,24,10.10
2019,03,19,08,25,10.20
2019,03,19,08,26,10.20
2019,03,19,08,27,10.20
2019,03,19,08,28,10.30
2019,03,19,08,29,10.30
2019,03,19,08,30,10.40
2019,03,19,08,31,10.40
2019,03,19,08,32,10.50
2019,03,19,08,33,10.60
2019,03,19,08,34,10.60
2019,03,19,08,35,10.70
2019,03,19,08,36,10.70
2019,03,19,08,37,10.80
2019,03,19,08,38,10.80
2019,03,19,08,39,10.90
2019,03,19,08,40,11.00
2019,03,19,08,41,11.10
2019,03,19,08,42,11.10
2019,03,19,08,43,11.20
2019,03,19,08,44,11.20
2019,03,19,08,45,11.30
2019,03,19,08,46,11.30
2019,03,19,08,47,11.30
2019,03,19,08,48,11.40
2019,03,19,08,49,11.40
2019,03,19,08,50,11.40
2019,03,19,08,51,11.50
2019,03,19,08,52,11.50
2019,03,19,08,53,11.50
2019,03,19,08,54,11.60
2019,03,19,08,55,11.60
2019,03,19,08,56,11.60
2019,03,19,08,57,11.60
2019,03,19,08,58,11.70
2019,03,19,08,59,11.70
2019,03,19,09,00,11.70
2019,03,19,09,01,11.80
2019,03,19,09,02,11.80
2019,03,19,09,03,11.80
2019,03,19,09,04,11.90
2019,03,19,09,05,11.90
2019,03,19,09,06,11.80
2019,03,19,09,07,11.80
2019,03,19,09,08,11.80
2019,03,19,09,09,11.90
2019,03,19,09,10,11.80
2019,03,19,09,11,11.80
2019,03,19,09,12,11.80
2019,03,19,09,13,11.90
2019,03,19,09,14,11.80
2019,03,19,09,15,11.80
2019,03,19,09,16,11.80
2019,03,19,09,17,11.80
2019,03,19,09,18,11.90
2019,03,19,09,19,11.90
2019,03,19,09,20,11.90
2019,03,19,09,21,11.90
2019,03,19,09,22,12.00
2019,03,19,09,23,12.10
2019,03,19,09,24,12.10
2019,03,19,09,25,12.20
2019,03,19,09,26,12.20
2019,03,19,09,27,12.30
2019,03,19,09,28,12.30
2019,03,19,09,29,12.40
2019,03,19,09,30,12.40
2019,03,19,09,31,12.40
2019,03,19,09,32,12.40
2019,03,19,09,33,12.40
2019,03,19,09,34,12.50
2019,03,19,09,35,12.50
2019,03,19,09,36,12.60
2019,03,19,09,37,12.60
2019,03,19,09,38,12.60
2019,03,19,09,39,12.70
2019,03,19,09,40,12.70
2019,03,19,09,41,12.70
2019,03,19,09,42,12.70
2019,03,19,09,43,12.80
2019,03,19,09,44,12.80
2019,03,19,09,45,12.80
2019,03,19,09,46,12.80
2019,03,19,09,47,12.80
2019,03,19,09,48,12.80
2019,03,19,09,49,12.80
2019,03,19,09,50,12.80
2019,03,19,09,51,12.90
2019,03,19,09,52,12.90
2019,03,19,09,53,12.90
2019,03,19,09,54,12.90
2019,03,19,09,55,12.80
2019,03,19,09,56,12.80
2019,03,19,09,57,12.80
2019,03,19,09,58,12.80
2019,03,19,09,59,12.90
2019,03,19,10,00,12.90
2019,03,19,10,01,12.90
2019,03,19,10,02,13.00
2019,03,19,10,03,13.00
2019,03,19,10,04,13.10
2019,03,19,10,05,13.10
2019,03,19,10,06,13.30
2019,03,19,10,07,13.40
2019,03,19,10,08,13.50
2019,03,19,10,09,13.60
2019,03,19,10,10,13.60
2019,03,19,10,11,13.70
2019,03,19,10,12,13.80
2019,03,19,10,13,13.80
2019,03,19,10,14,13.80
2019,03,19,10,15,13.80
2019,03,19,10,16,13.70
2019,03,19,10,17,13.70
2019,03,19,10,18,13.70
2019,03,19,10,19,13.70
2019,03,19,10,20,13.70
2019,03,19,10,21,13.70
2019,03,19,10,22,13.70
2019,03,19,10,23,13.70
2019,03,19,10,24,13.60
2019,03,19,10,25,13.60
2019,03,19,10,26,13.60
2019,03,19,10,27,13.60
2019,03,19,10,28,13.70
2019,03,19,10,29,13.70
2019,03,19,10,30,13.70
2019,03,19,10,31,13.70
2019,03,19,10,32,13.70
2019,03,19,10,33,13.70
2019,03,19,10,34,13.70
2019,03,19,10,35,13.80
2019,03,19,10,36,13.90
2019,03,19,10,37,14.00
2019,03,19,10,38,14.10
2019,03,19,10,39,14.10
2019,03,19,10,40,14.10
2019,03,19,10,41,14.10
2019,03,19,10,42,14.10
2019,03,19,10,43,14.10
2019,03,19,10,44,14.10
2019,03,19,10,45,13.80
2019,03,19,10,46,13.80
2019,03,19,10,47,13.80
2019,03,19,10,48,13.90
2019,03,19,10,49,13.90
2019,03,19,10,50,13.90
2019,03,19,10,51,13.90
2019,03,19,10,52,13.90
2019,03,19,10,53,13.90
2019,03,19,10,54,14.00
2019,03,19,10,55,14.00
2019,03,19,10,56,14.10
2019,03,19,10,57,14.20
2019,03,19,10,58,14.30
2019,03,19,10,59,14.40
2019,03,19,11,00,14.40
2019,03,19,11,01,14.40
2019,03,19,11,02,14.50
2019,03,19,11,03,14.50
2019,03,19,11,04,14.60
2019,03,19,11,05,14.70
2019,03,19,11,06,14.80
2019,03,19,11,07,14.80
2019,03,19,11,08,14.80
2019,03,19,11,09,14.80
2019,03,19,11,10,14.90
2019,03,19,11,11,14.90
2019,03,19,11,12,14.90
2019,03,19,11,13,14.90
2019,03,19,11,14,15.00
2019,03,19,11,15,15.00
2019,03,19,11,16,15.10
2019,03,19,11,17,15.10
2019,03,19,11,18,15.10
2019,03,19,11,19,15.10
2019,03,19,11,20,15.10
2019,03,19,11,21,15.10
2019,03,19,11,22,15.00
2019,03,19,11,23,15.00
2019,03,19,11,24,15.10
2019,03,19,11,25,15.10
2019,03,19,11,26,15.10
2019,03,19,11,27,15.20
2019,03,19,11,28,15.10
2019,03,19,11,29,15.10
2019,03,19,11,30,15.00
2019,03,19,11,31,14.90
2019,03,19,11,32,14.90
2019,03,19,11,33,14.90
2019,03,19,11,34,15.00
2019,03,19,11,35,15.00
2019,03,19,11,36,15.10
2019,03,19,11,37,15.10
2019,03,19,11,38,15.20
2019,03,19,11,39,15.20
2019,03,19,11,40,15.30
2019,03,19,11,41,15.20
2019,03,19,11,42,15.30
2019,03,19,11,43,15.40
2019,03,19,11,44,15.50
2019,03,19,11,45,15.60
2019,03,19,11,46,15.70
2019,03,19,11,47,15.70
2019,03,19,11,48,15.70
2019,03,19,11,49,15.70
2019,03,19,11,50,15.70
2019,03,19,11,51,15.70
2019,03,19,11,52,15.70
2019,03,19,11,53,15.80
2019,03,19,11,54,15.80
2019,03,19,11,55,15.80
2019,03,19,11,56,15.80
2019,03,19,11,57,15.80
2019,03,19,11,58,15.80
2019,03,19,11,59,15.80
2019,03,19,12,00,15.90
2019,03,19,12,01,15.90
2019,03,19,12,02,15.90
2019,03,19,12,03,15.90
2019,03,19,12,04,16.00
2019,03,19,12,05,16.00
2019,03,19,12,06,16.00
2019,03,19,12,07,16.10
2019,03,19,12,08,16.20
2019,03,19,12,09,16.30
2019,03,19,12,10,16.40
2019,03,19,12,11,16.50
2019,03,19,12,12,16.60
2019,03,19,12,13,16.70
2019,03,19,12,14,16.80
2019,03,19,12,15,16.90
2019,03,19,12,16,16.90
2019,03,19,12,17,16.90
2019,03,19,12,18,16.90
2019,03,19,12,19,17.00
2019,03,19,12,20,17.00
2019,03,19,12,21,17.00
2019,03,19,12,22,17.00
2019,03,19,12,23,16.90
2019,03,19,12,24,16.90
2019,03,19,12,25,16.90
2019,03,19,12,26,16.80
2019,03,19,12,27,16.80
2019,03,19,12,28,16.70
2019,03,19,12,29,16.70
2019,03,19,12,30,16.70
2019,03,19,12,31,16.50
2019,03,19,12,32,16.40
2019,03,19,12,33,16.40
2019,03,19,12,34,16.50
2019,03,19,12,35,16.60
2019,03,19,12,36,16.60
2019,03,19,12,37,16.60
2019,03,19,12,38,16.70
2019,03,19,12,39,16.80
2019,03,19,12,40,16.80
2019,03,19,12,41,16.90
2019,03,19,12,42,17.00
2019,03,19,12,43,17.00
2019,03,19,12,44,17.00
2019,03,19,12,45,17.00
2019,03,19,12,46,17.00
2019,03,19,12,47,17.00
2019,03,19,12,48,17.10
2019,03,19,12,49,17.10
2019,03,19,12,50,17.10
2019,03,19,12,51,17.10
2019,03,19,12,52,17.00
2019,03,19,12,53,17.00
2019,03,19,12,54,17.00
2019,03,19,12,55,17.00
2019,03,19,12,56,17.00
2019,03,19,12,57,17.00
2019,03,19,12,58,17.00
2019,03,19,12,59,17.10
2019,03,19,13,00,17.10
2019,03,19,13,01,17.10
2019,03,19,13,02,17.10
2019,03,19,13,03,17.00
2019,03,19,13,04,17.00
2019,03,19,13,05,16.90
2019,03,19,13,06,16.90
2019,03,19,13,07,16.90
2019,03,19,13,08,16.90
2019,03,19,13,09,16.90
2019,03,19,13,10,16.90
2019,03,19,13,11,16.90
2019,03,19,13,12,16.90
2019,03,19,13,13,16.90
2019,03,19,13,14,16.90
2019,03,19,13,15,16.90
2019,03,19,13,16,16.80
2019,03,19,13,17,16.80
2019,03,19,13,18,16.80
2019,03,19,13,19,16.70
2019,03,19,13,20,16.70
2019,03,19,13,21,16.70
2019,03,19,13,22,16.70
2019,03,19,13,23,16.70
2019,03,19,13,24,16.80
2019,03,19,13,25,16.90
2019,03,19,13,26,17.00
2019,03,19,13,27,17.10
2019,03,19,13,28,17.20
2019,03,19,13,29,17.20
2019,03,19,13,30,17.30
2019,03,19,13,31,17.30
2019,03,19,13,32,17.40
2019,03,19,13,33,17.60
2019,03,19,13,34,17.60
2019,03,19,13,35,17.70
2019,03,19,13,36,17.70
2019,03,19,13,37,17.80
2019,03,19,13,38,17.80
2019,03,19,13,39,17.60
2019,03,19,13,40,17.50
2019,03,19,13,41,17.40
2019,03,19,13,42,17.40
2019,03,19,13,43,17.40
2019,03,19,13,44,17.40
2019,03,19,13,45,17.40
2019,03,19,13,46,17.40
2019,03,19,13,47,17.40
2019,03,19,13,48,17.30
2019,03,19,13,49,17.30
2019,03,19,13,50,17.30
2019,03,19,13,51,17.40
2019,03,19,13,52,17.40
2019,03,19,13,53,17.50
2019,03,19,13,54,17.50
2019,03,19,13,55,17.60
2019,03,19,13,56,17.70
2019,03,19,13,57,17.70
2019,03,19,13,58,17.80
2019,03,19,13,59,17.80
2019,03,19,14,00,17.90
2019,03,19,14,01,18.00
2019,03,19,14,02,18.10
2019,03,19,14,03,18.10
2019,03,19,14,04,18.20
2019,03,19,14,05,18.20
2019,03,19,14,06,18.30
2019,03,19,14,07,18.30
2019,03,19,14,08,18.40
2019,03,19,14,09,18.40
2019,03,19,14,10,18.40
2019,03,19,14,11,18.40
2019,03,19,14,12,18.40
2019,03,19,14,13,18.40
2019,03,19,14,14,18.40
2019,03,19,14,15,18.50
2019,03,19,14,16,18.50
2019,03,19,14,17,18.50
2019,03,19,14,18,18.60
2019,03,19,14,19,18.70
2019,03,19,14,20,18.60
2019,03,19,14,21,18.60
2019,03,19,14,22,18.60
2019,03,19,14,23,18.60
2019,03,19,14,24,18.60
2019,03,19,14,25,18.60
2019,03,19,14,26,18.70
2019,03,19,14,27,18.70
2019,03,19,14,28,18.80
2019,03,19,14,29,18.90
2019,03,19,14,30,19.10
2019,03,19,14,31,19.20
2019,03,19,14,32,19.20
2019,03,19,14,33,19.30
2019,03,19,14,34,19.40
2019,03,19,14,35,19.40
2019,03,19,14,36,19.50
2019,03,19,14,37,19.50
2019,03,19,14,38,19.60
2019,03,19,14,39,19.70
2019,03,19,14,40,19.70
2019,03,19,14,41,19.70
2019,03,19,14,42,19.80
2019,03,19,14,43,19.80
2019,03,19,14,44,19.80
2019,03,19,14,45,19.70
2019,03,19,14,46,19.70
2019,03,19,14,47,19.70
2019,03,19,14,48,19.60
2019,03,19,14,49,19.50
2019,03,19,14,50,19.40
2019,03,19,14,51,19.40
2019,03,19,14,52,19.40
2019,03,19,14,53,19.40
2019,03,19,14,54,19.30
2019,03,19,14,55,19.30
2019,03,19,14,56,19.30
2019,03,19,14,57,19.40
2019,03,19,14,58,19.40
2019,03,19,14,59,19.50
2019,03,19,15,00,19.60
2019,03,19,15,01,19.60
2019,03,19,15,02,19.60
2019,03,19,15,03,19.50
2019,03,19,15,04,19.50
2019,03,19,15,05,19.50
2019,03,19,15,06,19.50
2019,03,19,15,07,19.50
2019,03,19,15,08,19.50
2019,03,19,15,09,19.60
2019,03,19,15,10,19.70
2019,03,19,15,11,19.80
2019,03,19,15,12,19.80
2019,03,19,15,13,19.90
2019,03,19,15,14,19.90
2019,03,19,15,15,19.90
2019,03,19,15,16,19.90
2019,03,19,15,17,20.00
2019,03,19,15,18,20.00
2019,03,19,15,19,20.10
2019,03,19,15,20,20.10
2019,03,19,15,21,20.20
2019,03,19,15,22,20.20
2019,03,19,15,23,20.30
2019,03,19,15,24,20.30
2019,03,19,15,25,20.30
2019,03,19,15,26,20.40
2019,03,19,15,27,20.30
2019,03,19,15,28,20.40
2019,03,19,15,29,20.40
2019,03,19,15,30,20.50
2019,03,19,15,31,20.60
2019,03,19,15,32,20.70
2019,03,19,15,33,20.80
2019,03,19,15,34,20.80
2019,03,19,15,35,20.80
2019,03,19,15,36,20.70
2019,03,19,15,37,20.70
2019,03,19,15,38,20.70
2019,03,19,15,39,20.60
2019,03,19,15,40,20.60
2019,03,19,15,41,20.60
2019,03,19,15,42,20.60
2019,03,19,15,43,20.50
2019,03,19,15,44,20.40
2019,03,19,15,45,20.40
2019,03,19,15,46,20.40
2019,03,19,15,47,20.40
2019,03,19,15,48,20.40
2019,03,19,15,49,20.30
2019,03,19,15,50,20.30
2019,03,19,15,51,20.30
2019,03,19,15,52,20.30
2019,03,19,15,53,20.20
2019,03,19,15,54,20.10
2019,03,19,15,55,20.10
2019,03,19,15,56,20.10
2019,03,19,15,57,20.10
2019,03,19,15,58,20.00
2019,03,19,15,59,20.00
2019,03,19,16,00,20.00
2019,03,19,16,01,20.10
2019,03,19,16,02,20.10
2019,03,19,16,03,20.10
2019,03,19,16,04,20.20
2019,03,19,16,05,20.20
2019,03,19,16,06,20.30
2019,03,19,16,07,20.30
2019,03,19,16,08,20.30
2019,03,19,16,09,20.30
2019,03,19,16,10,20.30
2019,03,19,16,11,20.30
2019,03,19,16,12,20.30
2019,03,19,16,13,20.30
2019,03,19,16,14,20.30
2019,03,19,16,15,20.20
2019,03,19,16,16,20.00
2019,03,19,16,17,20.00
2019,03,19,16,18,20.00
2019,03,19,16,19,20.00
2019,03,19,16,20,20.10
2019,03,19,16,21,20.20
2019,03,19,16,22,20.20
2019,03,19,16,23,20.30
2019,03,19,16,24,20.40
2019,03,19,16,25,20.50
2019,03,19,16,26,20.60
2019,03,19,16,27,20.60
2019,03,19,16,28,20.50
2019,03,19,16,29,20.50
2019,03,19,16,30,20.50
2019,03,19,16,31,20.40
2019,03,19,16,32,20.30
2019,03,19,16,33,20.30
2019,03,19,16,34,20.30
2019,03,19,16,35,20.20
2019,03,19,16,36,20.20
2019,03,19,16,37,20.10
2019,03,19,16,38,20.10
2019,03,19,16,39,20.10
2019,03,19,16,40,20.10
2019,03,19,16,41,20.10
2019,03,19,16,42,20.00
2019,03,19,16,43,20.00
2019,03,19,16,44,19.90
2019,03,19,16,45,19.80
2019,03,19,16,46,19.80
2019,03,19,16,47,19.80
2019,03,19,16,48,19.80
2019,03,19,16,49,19.80
2019,03,19,16,50,19.80
2019,03,19,16,51,19.80
2019,03,19,16,52,19.70
2019,03,19,16,53,19.60
2019,03,19,16,54,19.60
2019,03,19,16,55,19.60
2019,03,19,16,56,19.50
2019,03,19,16,57,19.50
2019,03,19,16,58,19.40
2019,03,19,16,59,19.40
2019,03,19,17,00,19.40
2019,03,19,17,01,19.40
2019,03,19,17,02,19.40
2019,03,19,17,03,19.40
2019,03,19,17,04,19.30
2019,03,19,17,05,19.30
2019,03,19,17,06,19.30
2019,03,19,17,07,19.30
2019,03,19,17,08,19.20
2019,03,19,17,09,19.20
2019,03,19,17,10,19.10
2019,03,19,17,11,19.10
2019,03,19,17,12,19.10
2019,03,19,17,13,19.10
2019,03,19,17,14,19.10
2019,03,19,17,15,19.10
2019,03,19,17,16,19.20
2019,03,19,17,17,19.20
2019,03,19,17,18,19.20
2019,03,19,17,19,19.20
2019,03,19,17,20,19.10
2019,03,19,17,21,19.10
2019,03,19,17,22,19.00
2019,03,19,17,23,18.90
2019,03,19,17,24,18.80
2019,03,19,17,25,18.80